NKS730 KEWR-KMIA

Flight info

Callsign NKS730
Flight time 2h 23m
Altitude 36000
Route ELVAE NECCK WHITE Q409 CRPLR BGBRD Q101 SKARP Y313 HOAGG BNFSH3
Aircraft A321/M-SDE3FGHIRWY/LB1

Departure

Time 2026-04-22 20:09
Airport Newark Liberty International Airport (KEWR)

Arrival

Time 2026-04-22 22:32
Airport Miami International Airport (KMIA)
Time Latitude Longitude Altitude Speed Heading
2026-04-22 19:25 40.68811 -74.17603 26 ft 0 kts 266°
2026-04-22 19:39 40.68812 -74.17585 22 ft 4 kts 266°
2026-04-22 19:40 40.68814 -74.17550 22 ft 3 kts 266°
2026-04-22 19:40 40.68817 -74.17521 22 ft 4 kts 235°
2026-04-22 19:40 40.68835 -74.17507 24 ft 4 kts 169°
2026-04-22 19:40 40.68854 -74.17522 22 ft 4 kts 116°
2026-04-22 19:41 40.68863 -74.17547 22 ft 0 kts 116°
2026-04-22 19:44 40.68858 -74.17534 24 ft 8 kts 116°
2026-04-22 19:44 40.68816 -74.17419 23 ft 17 kts 116°
2026-04-22 19:44 40.68825 -74.17301 22 ft 12 kts 28°
2026-04-22 19:45 40.68968 -74.17200 22 ft 31 kts 28°
2026-04-22 19:45 40.69161 -74.17077 23 ft 31 kts 27°
2026-04-22 19:45 40.69352 -74.16952 22 ft 31 kts 26°
2026-04-22 19:45 40.69546 -74.16829 22 ft 32 kts 26°
2026-04-22 19:46 40.69724 -74.16717 23 ft 15 kts 24°
2026-04-22 19:46 40.69748 -74.16702 21 ft 0 kts 25°
2026-04-22 19:51 40.69794 -74.16675 22 ft 8 kts 25°
2026-04-22 19:51 40.69801 -74.16670 24 ft 0 kts 26°
2026-04-22 20:07 40.69814 -74.16661 22 ft 12 kts 26°
2026-04-22 20:07 40.69928 -74.16588 21 ft 19 kts 26°
2026-04-22 20:08 40.69975 -74.16533 21 ft 0 kts 62°
2026-04-22 20:08 40.69976 -74.16530 21 ft 2 kts 67°
2026-04-22 20:08 40.69983 -74.16431 19 ft 15 kts 92°
2026-04-22 20:08 40.69950 -74.16410 19 ft 5 kts 205°
2026-04-22 20:09 40.69802 -74.16504 21 ft 57 kts 205°
2026-04-22 20:09 40.69231 -74.16866 23 ft 123 kts 205°
2026-04-22 20:09 40.68300 -74.17461 70 ft 168 kts 208°
2026-04-22 20:09 40.67258 -74.18113 718 ft 165 kts 204°
2026-04-22 20:10 40.66215 -74.18780 1291 ft 171 kts 204°
2026-04-22 20:10 40.65030 -74.19303 1487 ft 190 kts 188°
2026-04-22 20:10 40.63713 -74.19916 1641 ft 213 kts 208°
2026-04-22 20:10 40.62386 -74.20989 1765 ft 236 kts 211°
2026-04-22 20:11 40.61445 -74.21788 1921 ft 251 kts 212°
2026-04-22 20:11 40.59450 -74.23506 2738 ft 260 kts 209°
2026-04-22 20:11 40.57962 -74.24785 3797 ft 250 kts 210°
2026-04-22 20:11 40.56490 -74.25955 4691 ft 247 kts 204°
2026-04-22 20:12 40.54837 -74.26625 5361 ft 253 kts 190°
2026-04-22 20:12 40.53047 -74.26652 5943 ft 264 kts 174°
2026-04-22 20:12 40.51849 -74.26279 6312 ft 271 kts 163°
2026-04-22 20:12 40.50061 -74.25379 6887 ft 278 kts 161°
2026-04-22 20:13 40.48236 -74.24459 7504 ft 283 kts 162°
2026-04-22 20:13 40.46384 -74.23535 8146 ft 287 kts 162°
2026-04-22 20:13 40.43888 -74.22295 8948 ft 293 kts 163°
2026-04-22 20:13 40.41967 -74.21345 9548 ft 298 kts 163°
2026-04-22 20:14 40.40016 -74.20382 10155 ft 302 kts 163°
2026-04-22 20:14 40.38683 -74.19727 10277 ft 316 kts 163°
2026-04-22 20:14 40.36556 -74.18684 10412 ft 337 kts 164°
2026-04-22 20:14 40.34283 -74.17618 10544 ft 356 kts 167°
2026-04-22 20:15 40.31813 -74.16941 10684 ft 369 kts 178°
2026-04-22 20:15 40.29235 -74.16852 11110 ft 372 kts 189°
2026-04-22 20:15 40.25867 -74.17610 11876 ft 372 kts 198°
2026-04-22 20:15 40.23338 -74.18371 12478 ft 375 kts 198°
2026-04-22 20:16 40.21615 -74.18886 12857 ft 377 kts 198°
2026-04-22 20:16 40.19081 -74.19643 13404 ft 380 kts 198°
2026-04-22 20:16 40.16491 -74.20414 13960 ft 384 kts 198°
2026-04-22 20:16 40.13876 -74.21191 14518 ft 387 kts 198°
2026-04-22 20:17 40.11236 -74.21975 15057 ft 391 kts 198°
2026-04-22 20:17 40.08576 -74.22767 15588 ft 394 kts 198°
2026-04-22 20:17 40.05888 -74.23569 16120 ft 398 kts 198°
2026-04-22 20:17 40.02325 -74.24743 16797 ft 399 kts 204°
2026-04-22 20:18 40.00593 -74.25658 17132 ft 397 kts 211°
2026-04-22 20:18 39.98223 -74.27468 17635 ft 394 kts 220°
2026-04-22 20:18 39.96037 -74.29568 18113 ft 397 kts 221°
2026-04-22 20:18 39.93805 -74.31708 18575 ft 400 kts 221°
2026-04-22 20:19 39.91549 -74.33861 19017 ft 404 kts 221°
2026-04-22 20:19 39.89271 -74.36026 19460 ft 407 kts 221°
2026-04-22 20:19 39.86974 -74.38204 19892 ft 410 kts 221°
2026-04-22 20:19 39.84659 -74.40396 20318 ft 413 kts 221°
2026-04-22 20:20 39.82342 -74.42614 20719 ft 414 kts 223°
2026-04-22 20:20 39.80256 -74.45110 21119 ft 412 kts 230°
2026-04-22 20:20 39.78248 -74.47786 21522 ft 415 kts 230°
2026-04-22 20:20 39.76225 -74.50482 21918 ft 418 kts 231°
2026-04-22 20:21 39.74189 -74.53189 22307 ft 420 kts 230°
2026-04-22 20:21 39.72136 -74.55909 22669 ft 423 kts 230°
2026-04-22 20:21 39.70068 -74.58640 23011 ft 425 kts 230°
2026-04-22 20:21 39.67988 -74.61387 23356 ft 428 kts 230°
2026-04-22 20:22 39.65896 -74.64152 23691 ft 431 kts 230°
2026-04-22 20:22 39.63791 -74.66936 24040 ft 433 kts 230°
2026-04-22 20:22 39.63260 -74.67637 24126 ft 433 kts 230°
2026-04-22 20:23 39.62186 -74.69053 24227 ft 436 kts 230°
2026-04-22 20:23 39.60053 -74.71857 24606 ft 437 kts 230°
2026-04-22 20:24 39.57916 -74.74665 24948 ft 439 kts 230°
2026-04-22 20:24 39.55770 -74.77488 25260 ft 440 kts 230°
2026-04-22 20:24 39.53615 -74.80321 25576 ft 442 kts 230°
2026-04-22 20:24 39.51480 -74.83122 25876 ft 444 kts 230°
2026-04-22 20:25 39.49305 -74.85976 26188 ft 446 kts 230°
2026-04-22 20:25 39.47124 -74.88836 26494 ft 448 kts 230°
2026-04-22 20:25 39.44931 -74.91711 26794 ft 449 kts 231°
2026-04-22 20:25 39.42733 -74.94594 27089 ft 451 kts 230°
2026-04-22 20:26 39.40528 -74.97481 27402 ft 452 kts 230°
2026-04-22 20:26 39.38321 -75.00360 27801 ft 450 kts 230°
2026-04-22 20:26 39.36117 -75.03225 28201 ft 449 kts 230°
2026-04-22 20:26 39.33951 -75.06045 28584 ft 447 kts 231°
2026-04-22 20:27 39.31764 -75.08893 28977 ft 445 kts 231°
2026-04-22 20:27 39.29582 -75.11721 29358 ft 444 kts 230°
2026-04-22 20:27 39.27347 -75.14483 29720 ft 445 kts 228°
2026-04-22 20:27 39.25065 -75.17172 30080 ft 444 kts 227°
2026-04-22 20:28 39.22757 -75.19818 30433 ft 444 kts 227°
2026-04-22 20:28 39.20440 -75.22449 30756 ft 444 kts 227°
2026-04-22 20:28 39.18126 -75.25083 31049 ft 444 kts 227°
2026-04-22 20:28 39.15856 -75.27691 31335 ft 444 kts 227°
2026-04-22 20:29 39.13564 -75.30350 31613 ft 444 kts 228°
2026-04-22 20:29 39.11277 -75.33019 31886 ft 444 kts 228°
2026-04-22 20:29 39.08991 -75.35691 32148 ft 444 kts 228°
2026-04-22 20:29 39.06703 -75.38365 32418 ft 444 kts 228°
2026-04-22 20:30 39.04286 -75.40873 32668 ft 450 kts 219°
2026-04-22 20:30 39.01540 -75.42875 32913 ft 458 kts 210°
2026-04-22 20:30 38.98520 -75.44277 33146 ft 466 kts 200°
2026-04-22 20:30 38.95349 -75.45010 33377 ft 473 kts 191°
2026-04-22 20:31 38.92074 -75.45447 33616 ft 473 kts 191°
2026-04-22 20:31 38.88800 -75.45896 33858 ft 473 kts 191°
2026-04-22 20:31 38.85529 -75.46354 34085 ft 473 kts 191°
2026-04-22 20:31 38.82257 -75.46813 34318 ft 473 kts 191°
2026-04-22 20:32 38.78981 -75.47268 34549 ft 473 kts 191°
2026-04-22 20:32 38.75706 -75.47721 34770 ft 474 kts 191°
2026-04-22 20:32 38.72430 -75.48170 35004 ft 473 kts 191°
2026-04-22 20:32 38.69157 -75.48618 35227 ft 473 kts 191°
2026-04-22 20:33 38.65927 -75.49056 35454 ft 473 kts 191°
2026-04-22 20:33 38.62653 -75.49499 35666 ft 473 kts 191°
2026-04-22 20:33 38.59382 -75.49943 35879 ft 473 kts 191°
2026-04-22 20:33 38.56110 -75.50386 36016 ft 473 kts 191°
2026-04-22 20:34 38.52831 -75.50829 36061 ft 474 kts 191°
2026-04-22 20:34 38.46265 -75.51713 36053 ft 475 kts 191°
2026-04-22 20:35 38.39700 -75.52603 36063 ft 474 kts 191°
2026-04-22 20:35 38.33438 -75.54589 36062 ft 462 kts 208°
2026-04-22 20:36 38.27936 -75.58590 36068 ft 453 kts 220°
2026-04-22 20:36 38.22737 -75.63134 36065 ft 454 kts 220°
2026-04-22 20:37 38.17513 -75.67662 36069 ft 455 kts 220°
2026-04-22 20:37 38.12319 -75.72158 36068 ft 455 kts 220°
2026-04-22 20:38 38.07092 -75.76691 36071 ft 455 kts 220°
2026-04-22 20:38 38.01859 -75.81226 36073 ft 456 kts 220°
2026-04-22 20:39 37.96625 -75.85755 36072 ft 456 kts 220°
2026-04-22 20:39 37.91418 -75.90242 36074 ft 456 kts 220°
2026-04-22 20:40 37.86172 -75.94756 36080 ft 456 kts 220°
2026-04-22 20:40 37.80926 -75.99266 36085 ft 456 kts 220°
2026-04-22 20:41 37.75669 -76.03769 36088 ft 456 kts 219°
2026-04-22 20:41 37.70411 -76.08271 36089 ft 457 kts 219°
2026-04-22 20:42 37.65187 -76.12733 36089 ft 456 kts 219°
2026-04-22 20:42 37.59538 -76.16501 36089 ft 467 kts 204°
2026-04-22 20:43 37.53141 -76.18286 36085 ft 473 kts 194°
2026-04-22 20:43 37.46655 -76.19730 36081 ft 473 kts 194°
2026-04-22 20:44 37.40214 -76.21165 36079 ft 473 kts 194°
2026-04-22 20:44 37.33729 -76.22603 36078 ft 473 kts 194°
2026-04-22 20:45 37.27246 -76.24039 36075 ft 473 kts 194°
2026-04-22 20:45 37.20765 -76.25469 36074 ft 473 kts 194°
2026-04-22 20:46 37.11095 -76.27611 36071 ft 473 kts 194°
2026-04-22 20:46 37.04620 -76.29037 36074 ft 472 kts 194°
2026-04-22 20:47 36.98145 -76.30460 36080 ft 472 kts 194°
2026-04-22 20:47 36.91674 -76.31882 36101 ft 472 kts 194°
2026-04-22 20:48 36.85203 -76.33295 36116 ft 472 kts 194°
2026-04-22 20:48 36.78776 -76.34701 36108 ft 472 kts 194°
2026-04-22 20:49 36.72315 -76.36116 36100 ft 471 kts 194°
2026-04-22 20:49 36.65856 -76.37535 36090 ft 471 kts 194°
2026-04-22 20:50 36.59446 -76.38921 36082 ft 471 kts 194°
2026-04-22 20:50 36.52998 -76.40313 36083 ft 470 kts 194°
2026-04-22 20:51 36.46557 -76.41716 36087 ft 470 kts 194°
2026-04-22 20:51 36.40125 -76.43110 36089 ft 469 kts 194°
2026-04-22 20:52 36.33693 -76.44498 36091 ft 469 kts 194°
2026-04-22 20:52 36.27312 -76.45875 36093 ft 468 kts 194°
2026-04-22 20:53 36.20888 -76.47255 36098 ft 468 kts 194°
2026-04-22 20:53 36.14468 -76.48638 36105 ft 468 kts 194°
2026-04-22 20:54 36.08051 -76.50021 36109 ft 468 kts 194°
2026-04-22 20:54 36.01674 -76.51385 36106 ft 468 kts 194°
2026-04-22 20:55 35.95261 -76.52759 36114 ft 468 kts 194°
2026-04-22 20:55 35.88968 -76.54550 36115 ft 459 kts 206°
2026-04-22 20:56 35.83254 -76.57893 36116 ft 454 kts 212°
2026-04-22 20:56 35.77617 -76.61382 36107 ft 453 kts 212°
2026-04-22 20:57 35.72012 -76.64824 36117 ft 453 kts 212°
2026-04-22 20:57 35.66367 -76.68290 36115 ft 453 kts 212°
2026-04-22 20:58 35.60729 -76.71749 36121 ft 453 kts 212°
2026-04-22 20:58 35.55099 -76.75207 36127 ft 452 kts 211°
2026-04-22 20:59 35.49508 -76.78627 36126 ft 452 kts 212°
2026-04-22 20:59 35.43886 -76.82058 36128 ft 451 kts 212°
2026-04-22 21:00 35.38272 -76.85487 36127 ft 451 kts 212°
2026-04-22 21:00 35.32662 -76.88912 36128 ft 450 kts 212°
2026-04-22 21:01 35.27098 -76.92299 36134 ft 450 kts 212°
2026-04-22 21:01 35.21497 -76.95706 36134 ft 449 kts 212°
2026-04-22 21:02 35.15946 -76.99190 36142 ft 448 kts 213°
2026-04-22 21:02 35.10414 -77.02691 36130 ft 448 kts 213°
2026-04-22 21:03 35.04911 -77.06139 36135 ft 447 kts 212°
2026-04-22 21:03 34.99375 -77.09594 36143 ft 447 kts 212°
2026-04-22 21:04 34.93851 -77.13044 36144 ft 446 kts 212°
2026-04-22 21:04 34.88327 -77.16485 36147 ft 445 kts 213°
2026-04-22 21:05 34.82852 -77.19888 36154 ft 445 kts 212°
2026-04-22 21:05 34.77340 -77.23307 36159 ft 444 kts 213°
2026-04-22 21:06 34.71828 -77.26714 36163 ft 444 kts 212°
2026-04-22 21:06 34.66326 -77.30117 36169 ft 444 kts 213°
2026-04-22 21:07 34.60827 -77.33519 36170 ft 443 kts 213°
2026-04-22 21:07 34.55375 -77.36878 36173 ft 442 kts 213°
2026-04-22 21:08 34.49854 -77.40179 36173 ft 445 kts 207°
2026-04-22 21:08 34.43774 -77.42007 36172 ft 455 kts 195°
2026-04-22 21:09 34.37522 -77.43216 36171 ft 455 kts 195°
2026-04-22 21:09 34.31274 -77.44435 36174 ft 454 kts 195°
2026-04-22 21:10 34.25074 -77.45651 36173 ft 454 kts 195°
2026-04-22 21:10 34.18833 -77.46866 36171 ft 454 kts 195°
2026-04-22 21:11 34.12594 -77.48080 36171 ft 454 kts 195°
2026-04-22 21:11 34.06401 -77.49285 36177 ft 454 kts 195°
2026-04-22 21:12 34.00166 -77.50496 36180 ft 454 kts 195°
2026-04-22 21:12 33.93943 -77.51702 36184 ft 453 kts 195°
2026-04-22 21:13 33.87731 -77.52911 36185 ft 452 kts 195°
2026-04-22 21:13 33.81527 -77.54109 36178 ft 451 kts 195°
2026-04-22 21:14 33.75372 -77.55294 36189 ft 451 kts 195°
2026-04-22 21:14 33.69178 -77.56483 36187 ft 451 kts 195°
2026-04-22 21:15 33.62980 -77.57678 36178 ft 452 kts 194°
2026-04-22 21:15 33.56809 -77.59054 36173 ft 448 kts 201°
2026-04-22 21:16 33.50830 -77.61157 36176 ft 448 kts 201°
2026-04-22 21:16 33.44849 -77.63259 36184 ft 448 kts 201°
2026-04-22 21:17 33.38906 -77.65334 36188 ft 448 kts 201°
2026-04-22 21:17 33.32920 -77.67409 36188 ft 448 kts 201°
2026-04-22 21:18 33.26935 -77.69490 36193 ft 448 kts 201°
2026-04-22 21:18 33.20962 -77.71581 36195 ft 447 kts 201°
2026-04-22 21:19 33.14992 -77.73663 36196 ft 447 kts 201°
2026-04-22 21:19 33.09069 -77.75717 36196 ft 446 kts 201°
2026-04-22 21:20 33.03113 -77.77782 36197 ft 446 kts 201°
2026-04-22 21:20 32.97161 -77.79842 36196 ft 445 kts 201°
2026-04-22 21:21 32.91216 -77.81893 36197 ft 445 kts 201°
2026-04-22 21:21 32.85322 -77.83922 36201 ft 444 kts 201°
2026-04-22 21:22 32.79393 -77.85967 36205 ft 443 kts 201°
2026-04-22 21:22 32.73468 -77.88005 36205 ft 443 kts 201°
2026-04-22 21:23 32.67553 -77.90033 36205 ft 442 kts 201°
2026-04-22 21:23 32.61670 -77.92004 36202 ft 442 kts 201°
2026-04-22 21:24 32.55731 -77.93910 36199 ft 442 kts 200°
2026-04-22 21:24 32.49800 -77.95811 36198 ft 441 kts 201°
2026-04-22 21:25 32.43884 -77.97729 36202 ft 441 kts 200°
2026-04-22 21:25 32.38010 -77.99631 36206 ft 440 kts 201°
2026-04-22 21:26 32.32098 -78.01543 36206 ft 440 kts 200°
2026-04-22 21:26 32.26185 -78.03439 36207 ft 440 kts 200°
2026-04-22 21:27 32.20277 -78.05342 36207 ft 440 kts 200°
2026-04-22 21:27 32.14410 -78.07228 36202 ft 440 kts 200°
2026-04-22 21:28 32.08509 -78.09128 36199 ft 439 kts 200°
2026-04-22 21:28 32.02611 -78.11024 36203 ft 439 kts 200°
2026-04-22 21:29 31.96708 -78.12907 36210 ft 440 kts 200°
2026-04-22 21:29 31.90807 -78.14791 36212 ft 439 kts 200°
2026-04-22 21:30 31.84948 -78.16662 36214 ft 439 kts 200°
2026-04-22 21:30 31.79045 -78.18552 36215 ft 440 kts 200°
2026-04-22 21:31 31.73142 -78.20439 36214 ft 439 kts 200°
2026-04-22 21:31 31.67240 -78.22307 36212 ft 439 kts 200°
2026-04-22 21:32 31.61381 -78.24164 36212 ft 439 kts 201°
2026-04-22 21:32 31.55484 -78.26035 36211 ft 439 kts 201°
2026-04-22 21:33 31.49590 -78.27907 36210 ft 439 kts 201°
2026-04-22 21:33 31.43698 -78.29792 36211 ft 439 kts 201°
2026-04-22 21:34 31.37867 -78.31756 36212 ft 439 kts 202°
2026-04-22 21:34 31.32004 -78.33745 36212 ft 439 kts 202°
2026-04-22 21:35 31.26138 -78.35718 36211 ft 439 kts 202°
2026-04-22 21:35 31.20266 -78.37680 36211 ft 439 kts 202°
2026-04-22 21:36 31.14431 -78.39618 36213 ft 439 kts 202°
2026-04-22 21:36 31.08560 -78.41570 36220 ft 439 kts 202°
2026-04-22 21:37 31.02688 -78.43527 36227 ft 439 kts 202°
2026-04-22 21:37 30.96812 -78.45470 36230 ft 439 kts 202°
2026-04-22 21:38 30.90971 -78.47404 36233 ft 440 kts 202°
2026-04-22 21:38 30.85089 -78.49356 36233 ft 440 kts 202°
2026-04-22 21:39 30.79208 -78.51317 36236 ft 439 kts 202°
2026-04-22 21:39 30.73330 -78.53264 36237 ft 439 kts 203°
2026-04-22 21:40 30.67493 -78.55187 36241 ft 439 kts 202°
2026-04-22 21:40 30.61622 -78.57120 36242 ft 438 kts 203°
2026-04-22 21:41 30.55757 -78.59048 36243 ft 438 kts 203°
2026-04-22 21:41 30.49895 -78.60968 36241 ft 437 kts 202°
2026-04-22 21:42 30.44044 -78.62884 36235 ft 437 kts 203°
2026-04-22 21:42 30.38238 -78.64793 36233 ft 437 kts 203°
2026-04-22 21:43 30.32391 -78.66703 36231 ft 437 kts 203°
2026-04-22 21:43 30.26546 -78.68621 36232 ft 436 kts 203°
2026-04-22 21:44 30.20703 -78.70534 36235 ft 436 kts 203°
2026-04-22 21:44 30.14900 -78.72432 36227 ft 436 kts 203°
2026-04-22 21:45 30.09053 -78.74335 36224 ft 437 kts 203°
2026-04-22 21:45 30.03207 -78.76238 36220 ft 436 kts 203°
2026-04-22 21:46 29.97361 -78.78137 36219 ft 436 kts 204°
2026-04-22 21:46 29.91526 -78.80032 36227 ft 435 kts 204°
2026-04-22 21:47 29.85696 -78.81925 36229 ft 435 kts 203°
2026-04-22 21:47 29.79908 -78.83793 36225 ft 435 kts 203°
2026-04-22 21:48 29.73848 -78.84914 36222 ft 444 kts 195°
2026-04-22 21:48 29.67701 -78.85729 36221 ft 445 kts 194°
2026-04-22 21:49 29.61555 -78.86551 36221 ft 445 kts 195°
2026-04-22 21:49 29.55405 -78.87381 36218 ft 445 kts 195°
2026-04-22 21:50 29.49251 -78.88207 36213 ft 445 kts 194°
2026-04-22 21:50 29.43138 -78.89027 36215 ft 445 kts 195°
2026-04-22 21:51 29.36980 -78.89862 36216 ft 446 kts 195°
2026-04-22 21:52 29.27739 -78.91095 36221 ft 446 kts 195°
2026-04-22 21:52 29.21571 -78.91917 36222 ft 446 kts 195°
2026-04-22 21:53 29.15446 -78.92741 36222 ft 446 kts 195°
2026-04-22 21:53 29.09284 -78.93567 36220 ft 445 kts 195°
2026-04-22 21:54 29.03131 -78.94397 36219 ft 446 kts 195°
2026-04-22 21:54 28.96965 -78.95209 36221 ft 446 kts 195°
2026-04-22 21:55 28.90799 -78.96016 36221 ft 446 kts 195°
2026-04-22 21:55 28.84671 -78.96826 36220 ft 446 kts 195°
2026-04-22 21:56 28.78501 -78.97653 36221 ft 447 kts 195°
2026-04-22 21:56 28.72322 -78.98478 36221 ft 447 kts 195°
2026-04-22 21:57 28.66138 -78.99292 36223 ft 448 kts 195°
2026-04-22 21:57 28.59947 -79.00107 36224 ft 448 kts 195°
2026-04-22 21:58 28.53800 -79.00916 36219 ft 448 kts 195°
2026-04-22 21:58 28.47609 -79.01735 36218 ft 448 kts 195°
2026-04-22 21:59 28.41411 -79.02553 36217 ft 448 kts 195°
2026-04-22 21:59 28.35224 -79.03406 36215 ft 444 kts 199°
2026-04-22 22:00 28.29430 -79.05295 36222 ft 434 kts 206°
2026-04-22 22:00 28.23696 -79.07446 36223 ft 434 kts 207°
2026-04-22 22:01 28.17955 -79.09590 36225 ft 434 kts 206°
2026-04-22 22:01 28.12219 -79.11727 36223 ft 434 kts 206°
2026-04-22 22:02 28.06527 -79.13847 36223 ft 434 kts 206°
2026-04-22 22:02 28.00789 -79.15979 36223 ft 434 kts 206°
2026-04-22 22:03 27.95055 -79.18106 36225 ft 434 kts 207°
2026-04-22 22:03 27.89325 -79.20231 36223 ft 433 kts 207°
2026-04-22 22:04 27.83597 -79.22348 36220 ft 433 kts 207°
2026-04-22 22:04 27.77864 -79.24467 36218 ft 434 kts 207°
2026-04-22 22:05 27.72174 -79.26571 36219 ft 433 kts 207°
2026-04-22 22:05 27.66450 -79.28686 36220 ft 433 kts 207°
2026-04-22 22:06 27.60728 -79.30798 36220 ft 433 kts 207°
2026-04-22 22:06 27.55004 -79.32906 36221 ft 432 kts 207°
2026-04-22 22:07 27.49333 -79.34992 36219 ft 432 kts 207°
2026-04-22 22:07 27.43626 -79.37092 36217 ft 431 kts 207°
2026-04-22 22:08 27.37920 -79.39190 36064 ft 432 kts 207°
2026-04-22 22:08 27.35066 -79.40239 35786 ft 431 kts 207°
2026-04-22 22:08 27.32212 -79.41285 35181 ft 431 kts 207°
2026-04-22 22:08 27.29353 -79.42332 34455 ft 434 kts 206°
2026-04-22 22:09 27.26477 -79.43385 33688 ft 437 kts 206°
2026-04-22 22:09 27.23576 -79.44449 32881 ft 440 kts 206°
2026-04-22 22:09 27.20651 -79.45523 32079 ft 443 kts 206°
2026-04-22 22:09 27.17751 -79.46586 31284 ft 445 kts 205°
2026-04-22 22:10 27.14794 -79.47666 30396 ft 449 kts 205°
2026-04-22 22:10 27.11809 -79.48754 29503 ft 452 kts 205°
2026-04-22 22:10 27.08807 -79.49848 28595 ft 455 kts 204°
2026-04-22 22:10 27.05784 -79.50951 27635 ft 459 kts 204°
2026-04-22 22:11 27.02735 -79.52063 26635 ft 463 kts 204°
2026-04-22 22:11 26.99662 -79.53183 25751 ft 464 kts 203°
2026-04-22 22:11 26.96617 -79.54290 25190 ft 457 kts 202°
2026-04-22 22:11 26.93609 -79.55384 24528 ft 452 kts 202°
2026-04-22 22:12 26.90632 -79.56466 23891 ft 448 kts 202°
2026-04-22 22:12 26.87684 -79.57534 23247 ft 443 kts 201°
2026-04-22 22:12 26.84768 -79.58587 22643 ft 438 kts 202°
2026-04-22 22:12 26.81921 -79.59611 22038 ft 433 kts 201°
2026-04-22 22:13 26.79069 -79.60636 21425 ft 428 kts 201°
2026-04-22 22:13 26.76253 -79.61649 20833 ft 423 kts 201°
2026-04-22 22:13 26.73466 -79.62653 20243 ft 418 kts 201°
2026-04-22 22:13 26.70731 -79.63638 19978 ft 406 kts 201°
2026-04-22 22:14 26.68086 -79.64588 19849 ft 393 kts 201°
2026-04-22 22:14 26.65529 -79.65503 19700 ft 380 kts 201°
2026-04-22 22:14 26.63037 -79.66395 19380 ft 372 kts 201°
2026-04-22 22:14 26.60583 -79.67271 19104 ft 369 kts 201°
2026-04-22 22:15 26.58141 -79.68130 18640 ft 367 kts 201°
2026-04-22 22:15 26.55745 -79.68964 18166 ft 364 kts 201°
2026-04-22 22:15 26.53333 -79.69803 17682 ft 362 kts 201°
2026-04-22 22:15 26.50940 -79.70642 17192 ft 359 kts 200°
2026-04-22 22:16 26.48569 -79.71486 16716 ft 356 kts 202°
2026-04-22 22:16 26.46350 -79.72643 16238 ft 350 kts 213°
2026-04-22 22:16 26.44399 -79.74242 15786 ft 345 kts 224°
2026-04-22 22:16 26.42746 -79.76169 15508 ft 344 kts 229°
2026-04-22 22:17 26.41135 -79.78140 15226 ft 344 kts 229°
2026-04-22 22:17 26.39540 -79.80075 14953 ft 343 kts 229°
2026-04-22 22:17 26.38002 -79.82100 14673 ft 341 kts 236°
2026-04-22 22:17 26.36649 -79.84264 14398 ft 338 kts 236°
2026-04-22 22:18 26.35326 -79.86376 14250 ft 326 kts 236°
2026-04-22 22:18 26.34055 -79.88405 14120 ft 314 kts 236°
2026-04-22 22:18 26.32820 -79.90375 13865 ft 307 kts 236°
2026-04-22 22:18 26.31608 -79.92311 13622 ft 304 kts 236°
2026-04-22 22:19 26.30404 -79.94238 13371 ft 303 kts 236°
2026-04-22 22:19 26.29202 -79.96159 13120 ft 302 kts 236°
2026-04-22 22:19 26.28002 -79.98075 12870 ft 301 kts 236°
2026-04-22 22:19 26.26790 -79.99942 12621 ft 301 kts 230°
2026-04-22 22:20 26.25245 -80.01507 12372 ft 301 kts 214°
2026-04-22 22:20 26.23384 -80.02568 12121 ft 301 kts 199°
2026-04-22 22:20 26.21352 -80.03114 11871 ft 301 kts 192°
2026-04-22 22:20 26.19301 -80.03577 11619 ft 300 kts 192°
2026-04-22 22:21 26.17283 -80.04142 11367 ft 299 kts 203°
2026-04-22 22:21 26.15548 -80.05374 11126 ft 296 kts 224°
2026-04-22 22:21 26.14334 -80.07192 10751 ft 293 kts 240°
2026-04-22 22:21 26.13319 -80.09158 10355 ft 293 kts 240°
2026-04-22 22:22 26.12328 -80.11097 9986 ft 291 kts 239°
2026-04-22 22:22 26.11331 -80.13057 9588 ft 291 kts 239°
2026-04-22 22:22 26.10331 -80.15021 9171 ft 293 kts 239°
2026-04-22 22:22 26.09326 -80.16994 8760 ft 293 kts 239°
2026-04-22 22:23 26.08318 -80.18965 8388 ft 292 kts 239°
2026-04-22 22:23 26.07313 -80.20924 8022 ft 291 kts 239°
2026-04-22 22:23 26.06310 -80.22869 7590 ft 289 kts 239°
2026-04-22 22:23 26.05311 -80.24801 7046 ft 287 kts 239°
2026-04-22 22:24 26.04332 -80.26700 6766 ft 275 kts 239°
2026-04-22 22:24 26.03408 -80.28495 6609 ft 261 kts 238°
2026-04-22 22:24 26.02519 -80.30225 6266 ft 255 kts 238°
2026-04-22 22:24 26.01653 -80.31904 5840 ft 253 kts 238°
2026-04-22 22:25 26.00782 -80.33593 5385 ft 251 kts 238°
2026-04-22 22:25 25.99919 -80.35270 4928 ft 249 kts 238°
2026-04-22 22:25 25.99057 -80.36938 4439 ft 248 kts 239°
2026-04-22 22:25 25.98198 -80.38602 3966 ft 248 kts 238°
2026-04-22 22:26 25.97344 -80.40261 3521 ft 246 kts 238°
2026-04-22 22:26 25.96497 -80.41908 3044 ft 245 kts 238°
2026-04-22 22:26 25.95648 -80.43558 2601 ft 246 kts 238°
2026-04-22 22:26 25.94802 -80.45200 2325 ft 243 kts 238°
2026-04-22 22:27 25.93974 -80.46799 2151 ft 233 kts 236°
2026-04-22 22:27 25.92839 -80.47980 2049 ft 221 kts 201°
2026-04-22 22:27 25.91398 -80.48232 2014 ft 211 kts 166°
2026-04-22 22:27 25.90078 -80.47618 2032 ft 205 kts 146°
2026-04-22 22:28 25.88877 -80.46772 2013 ft 204 kts 143°
2026-04-22 22:28 25.87842 -80.45727 2009 ft 200 kts 121°
2026-04-22 22:28 25.87160 -80.44419 2034 ft 187 kts 117°
2026-04-22 22:28 25.86562 -80.43236 2005 ft 165 kts 117°
2026-04-22 22:29 25.86018 -80.42167 2000 ft 155 kts 117°
2026-04-22 22:29 25.85493 -80.41135 2005 ft 151 kts 116°
2026-04-22 22:29 25.84978 -80.40124 1966 ft 149 kts 117°
2026-04-22 22:29 25.84467 -80.39121 1807 ft 148 kts 116°
2026-04-22 22:30 25.83969 -80.38146 1643 ft 142 kts 116°
2026-04-22 22:30 25.83498 -80.37221 1453 ft 138 kts 116°
2026-04-22 22:30 25.83029 -80.36302 1272 ft 137 kts 116°
2026-04-22 22:30 25.82561 -80.35387 1094 ft 136 kts 116°
2026-04-22 22:31 25.82097 -80.34477 919 ft 136 kts 116°
2026-04-22 22:31 25.81633 -80.33568 733 ft 135 kts 116°
2026-04-22 22:31 25.81170 -80.32660 552 ft 135 kts 116°
2026-04-22 22:31 25.80702 -80.31748 425 ft 137 kts 114°
2026-04-22 22:32 25.80239 -80.30816 214 ft 139 kts 117°
2026-04-22 22:32 25.79764 -80.29898 26 ft 136 kts 119°
2026-04-22 22:32 25.79359 -80.29109 16 ft 98 kts 121°
2026-04-22 22:32 25.79093 -80.28592 14 ft 37 kts 120°
2026-04-22 22:33 25.78985 -80.28375 16 ft 30 kts 105°
2026-04-22 22:33 25.79000 -80.28279 17 ft 0 kts 46°
2026-04-22 22:33 25.79009 -80.28260 17 ft 8 kts 56°
2026-04-22 22:33 25.79039 -80.28280 16 ft 11 kts 296°
2026-04-22 22:34 25.79066 -80.28341 16 ft 14 kts 296°
2026-04-22 22:34 25.79134 -80.28401 15 ft 13 kts 358°
2026-04-22 22:34 25.79239 -80.28359 15 ft 19 kts 22°
2026-04-22 22:34 25.79333 -80.28277 17 ft 17 kts 48°
2026-04-22 22:35 25.79371 -80.28168 15 ft 14 kts 70°
2026-04-22 22:35 25.79403 -80.28085 15 ft 8 kts 64°
2026-04-22 22:35 25.79412 -80.28059 17 ft 1 kts 92°
2026-04-22 22:35 25.79404 -80.28052 15 ft 3 kts 133°
2026-04-22 22:36 25.79376 -80.28036 15 ft 3 kts 162°
2026-04-22 22:36 25.79367 -80.28033 15 ft 0 kts 162°